sat.trackr.live / text

‹ back to catalog

STARLINK-32380

NORAD 61069 · 2024-164V

PAYLOAD ACTIVE UNKNOWN

§ Identity

Operator
Country
US
Launch date
2024-09-13
Launch site
AFWTR
Launch vehicle
Mass (kg)
RCS (m²)

Purposes: comms

External: N2YO · Heavens-Above · Gunter

§ Orbital elements

Epoch: 2026-05-25T03:26:13.542720Z

Period
94.01 min
Inclination
53.1620°
Eccentricity
0.0001284
Mean motion
15.31705155 rev/d
Perigee alt
469.8 km
Apogee alt
471.6 km
Semi-major
6,848.9 km
B*
2.9817e-5
RAAN
95.9516°
Arg perigee
83.8227°
Mean anomaly
276.2921°
Rev number
9,518

§ Raw data

STARLINK-323801 61069U 24164V   26145.14321230  .00000560  00000+0  29817-4 0  99942 61069  53.1620  95.9516 0001284  83.8227 276.2921 15.31705155 95186

JSON: /api/v1/satellites/61069 · /tle

For live sub-satellite position, see the globe view (requires WebGL).

§ Visibility from observer

Set your observer location to see the next 7 days of passes ≥ 10°. The values pass through the URL so the page stays shareable.

No JS? Fill the form by hand. The geolocation button needs JavaScript.